period_start,C,m1,H,J0,J1,J2,J3,J4,J5,JA,JB,JC,JD,JJ,JK,JN,#
2016-09-24 00:02:14,0.00,1.12,0.00,23.22,28.75,31.97,14.54,47.88,1009.78,2028.99,3041.01,2827.95,3178.98,599.99,591.39,36.00,0000 0000 0000 0000 000000
2016-09-24 00:07:16,0.01,1.12,0.00,23.15,28.75,31.99,14.47,47.88,1009.78,2028.99,3041.00,2827.66,3178.95,599.85,591.60,36.05,0000 0000 0000 0000 000000
2016-09-24 00:12:17,0.00,1.12,0.00,23.14,28.73,31.99,14.53,47.67,1009.78,2028.99,3041.00,2827.74,3178.97,600.16,591.84,36.11,0000 0000 0000 0000 000000
2016-09-24 00:17:18,0.00,1.12,0.00,23.13,28.72,31.98,14.50,47.73,1009.78,2028.99,3041.00,2827.90,3178.98,599.96,591.67,36.16,0000 0000 0000 0000 000000
2016-09-24 00:22:19,0.00,1.12,0.00,23.14,28.72,31.95,14.48,47.72,1009.78,2028.98,3041.00,2827.78,3178.94,599.66,591.38,36.21,0000 0000 0000 0000 000000
2016-09-24 00:27:21,0.01,1.12,0.00,23.55,28.72,31.86,14.48,47.78,1009.78,2028.99,3040.99,2827.65,3178.93,600.31,591.25,36.26,0000 0000 0000 0000 000000
2016-09-24 00:32:22,-0.00,1.12,0.00,23.82,28.73,31.72,14.44,47.75,1009.78,2028.99,3040.99,2827.60,3178.93,599.97,590.34,36.31,0000 0000 0000 0000 000000
2016-09-24 00:37:24,0.00,1.12,0.00,23.90,28.75,31.75,14.42,47.63,1009.78,2028.99,3040.99,2827.66,3178.94,600.18,590.34,36.36,0000 0000 0000 0000 000000
2016-09-24 00:42:25,0.00,1.12,0.00,23.99,28.76,31.80,14.34,47.69,1009.78,2028.99,3040.99,2827.53,3178.86,599.88,589.86,36.41,0000 0000 0000 0000 000000
2016-09-24 00:47:26,0.03,1.12,0.00,24.02,28.78,31.81,14.30,47.67,1009.77,2028.98,3040.58,2826.99,3178.13,599.86,589.91,36.46,0000 0000 0000 0000 000000
2016-09-24 00:52:28,1.11,1.15,0.00,24.02,28.80,31.82,14.39,47.77,1009.74,2028.92,3025.24,2816.54,3166.56,599.97,590.00,36.51,0000 0000 0000 0000 000000
2016-09-24 00:57:29,1.10,1.22,0.00,24.00,28.80,31.85,14.41,47.70,1009.75,2028.66,2999.54,2800.26,3148.70,600.10,590.00,36.56,0000 0000 0000 0000 000000
2016-09-24 01:02:30,0.18,1.24,0.00,23.98,28.82,31.84,14.38,47.68,1009.77,2028.36,2991.48,2795.40,3143.36,599.59,589.70,36.61,0000 0000 0000 0000 000000
2016-09-24 01:07:32,0.01,1.25,0.00,23.99,28.82,31.84,14.41,47.77,1009.76,2028.27,2990.97,2795.00,3143.00,600.01,590.06,36.66,0000 0000 0000 0000 000000
2016-09-24 01:12:33,-0.01,1.24,0.00,23.99,28.83,31.84,14.40,47.81,1009.73,2028.14,2990.93,2795.00,3143.00,600.14,590.22,36.71,0000 0000 0000 0000 000000
2016-09-24 01:17:34,-0.01,1.24,0.00,23.97,28.85,31.82,14.36,47.79,1009.72,2028.07,2990.88,2795.00,3142.99,599.69,589.78,36.76,0000 0000 0000 0000 000000
2016-09-24 01:22:35,-0.00,1.24,0.00,24.01,28.85,31.83,14.45,47.80,1009.65,2028.04,2990.69,2795.00,3142.96,599.95,589.92,36.81,0000 0000 0000 0000 000000
2016-09-24 01:27:37,0.01,1.25,0.00,23.98,28.85,31.79,14.49,47.94,1009.66,2028.01,2990.19,2794.97,3142.77,600.48,590.45,36.86,0000 0000 0000 0000 000000
2016-09-24 01:32:38,0.02,1.25,0.00,23.98,28.85,31.80,14.31,47.91,1009.71,2028.00,2990.00,2794.70,3142.12,599.88,589.90,36.91,0000 0000 0000 0000 000000
2016-09-24 01:37:40,0.00,1.25,0.00,23.99,28.85,31.82,14.37,47.82,1009.73,2028.01,2990.00,2794.59,3142.10,599.98,589.95,36.96,0000 0000 0000 0000 000000
2016-09-24 01:42:41,-0.00,1.25,0.00,23.97,28.85,31.79,14.38,47.97,1009.53,2028.03,2990.00,2794.71,3142.23,599.99,589.91,37.02,0000 0000 0000 0000 000000
2016-09-24 01:47:42,0.01,1.25,0.00,23.99,28.85,31.81,14.40,47.98,1009.34,2028.03,2989.99,2794.48,3142.08,600.08,589.81,37.07,0000 0000 0000 0000 000000
2016-09-24 01:52:44,0.00,1.25,0.00,24.04,28.85,31.82,14.43,47.88,1009.31,2028.02,2989.99,2794.49,3142.08,600.26,589.94,37.12,0000 0000 0000 0000 000000
2016-09-24 01:57:45,-0.00,1.25,0.00,24.02,28.85,31.85,14.43,47.77,1009.30,2028.01,2989.99,2794.36,3142.06,600.11,589.84,37.17,0000 0000 0000 0000 000000
2016-09-24 02:02:46,0.00,1.25,0.00,24.01,28.85,31.79,14.37,47.84,1009.30,2028.03,2989.98,2794.37,3142.08,599.93,589.63,37.22,0000 0000 0000 0000 000000
2016-09-24 02:07:47,-0.00,1.25,0.00,24.01,28.85,31.81,14.38,47.87,1009.31,2028.02,2989.98,2794.32,3142.06,599.93,589.75,37.27,0000 0000 0000 0000 000000
2016-09-24 02:12:48,-0.00,1.25,0.00,24.06,28.85,31.81,14.45,48.03,1009.32,2028.00,2989.98,2794.39,3142.02,600.13,589.75,37.32,0000 0000 0000 0000 000000
2016-09-24 02:17:50,0.01,1.25,0.00,24.07,28.85,31.77,14.44,47.97,1009.35,2028.02,2989.97,2794.31,3142.05,600.03,589.60,37.37,0000 0000 0000 0000 000000
2016-09-24 02:22:51,-0.00,1.25,0.00,24.06,28.85,31.82,14.38,47.97,1009.39,2028.02,2989.98,2794.35,3142.09,599.93,589.63,37.42,0000 0000 0000 0000 000000
2016-09-24 02:27:53,-0.01,1.25,0.00,24.04,28.85,31.82,14.44,47.91,1009.43,2028.03,2989.99,2794.47,3142.18,599.81,589.56,37.47,0000 0000 0000 0000 000000
2016-09-24 02:32:54,0.00,1.25,0.00,24.07,28.85,31.81,14.41,47.92,1009.49,2028.04,2989.99,2794.60,3142.22,600.05,589.88,37.52,0000 0000 0000 0000 000000
2016-09-24 02:37:56,-0.01,1.25,0.00,24.10,28.85,31.86,14.36,47.98,1009.50,2028.08,2989.98,2794.70,3142.34,600.01,589.79,37.57,0000 0000 0000 0000 000000
2016-09-24 02:42:57,-0.00,1.25,0.00,24.11,28.85,31.86,14.38,47.95,1009.47,2028.10,2989.99,2794.78,3142.48,599.83,589.54,37.62,0000 0000 0000 0000 000000
2016-09-24 02:47:58,-0.00,1.25,0.00,24.10,28.84,31.85,14.44,47.96,1009.42,2028.08,2989.99,2794.87,3142.60,599.99,589.48,37.67,0000 0000 0000 0000 000000
2016-09-24 02:53:00,0.00,1.25,0.00,24.10,28.84,31.85,14.35,47.88,1009.47,2028.08,2989.99,2794.87,3142.66,600.24,589.93,37.72,0000 0000 0000 0000 000000
2016-09-24 02:58:01,-0.00,1.25,0.00,24.14,28.84,31.85,14.46,47.95,1009.42,2028.09,2989.99,2794.91,3142.69,600.06,589.60,37.77,0000 0000 0000 0000 000000
2016-09-24 03:03:02,0.00,1.25,0.00,24.15,28.84,31.82,14.40,47.90,1009.34,2028.11,2989.99,2794.90,3142.76,600.09,589.57,37.83,0000 0000 0000 0000 000000
2016-09-24 03:08:03,0.00,1.25,0.00,24.14,28.84,31.79,14.42,47.91,1009.33,2028.10,2989.99,2794.86,3142.69,599.96,589.46,37.88,0000 0000 0000 0000 000000
2016-09-24 03:13:04,0.01,1.25,0.00,24.17,28.84,31.85,14.40,47.89,1009.32,2028.26,2989.99,2794.94,3142.84,599.89,589.38,37.93,0000 0000 0000 0000 000000
2016-09-24 03:18:06,0.01,1.25,0.00,24.17,28.84,31.84,14.41,47.92,1009.32,2028.41,2989.99,2794.95,3142.92,600.09,589.46,37.98,0000 0000 0000 0000 000000
2016-09-24 03:23:07,0.01,1.25,0.00,24.18,28.83,31.81,14.41,47.94,1009.31,2028.50,2989.99,2794.97,3142.90,599.96,589.33,38.03,0000 0000 0000 0000 000000
2016-09-24 03:28:08,-0.01,1.25,0.00,24.20,28.83,31.84,14.43,47.92,1009.34,2028.44,2989.99,2794.94,3142.81,600.08,589.50,38.08,0000 0000 0000 0000 000000
2016-09-24 03:33:10,-0.01,1.25,0.00,24.21,28.83,31.85,14.36,47.93,1009.43,2028.37,2989.98,2794.89,3142.77,599.88,589.29,38.13,0000 0000 0000 0000 000000
2016-09-24 03:38:11,0.01,1.25,0.00,24.21,28.82,31.85,14.42,47.90,1009.43,2028.48,2989.97,2794.85,3142.68,600.24,589.67,38.18,0000 0000 0000 0000 000000
2016-09-24 03:43:12,0.02,1.25,0.00,24.23,28.82,31.86,14.39,48.04,1009.52,2028.56,2989.96,2794.90,3142.81,600.04,589.47,38.23,0000 0000 0000 0000 000000
2016-09-24 03:48:13,0.00,1.25,0.00,24.25,28.82,31.84,14.36,48.02,1009.57,2028.58,2989.96,2794.86,3142.70,599.86,589.31,38.28,0000 0000 0000 0000 000000
2016-09-24 03:53:15,-0.01,1.25,0.00,24.25,28.82,31.85,14.34,48.08,1009.55,2028.44,2989.92,2794.77,3142.52,600.25,589.46,38.33,0000 0000 0000 0000 000000
2016-09-24 03:58:16,0.02,1.25,0.00,24.28,28.82,31.88,14.29,47.89,1009.57,2028.71,2989.96,2794.90,3142.73,599.77,589.13,38.38,0000 0000 0000 0000 000000
2016-09-24 04:03:18,0.01,1.25,0.00,24.28,28.82,31.83,14.41,48.02,1009.71,2028.79,2989.92,2794.91,3142.68,600.06,589.44,38.43,0000 0000 0000 0000 000000
2016-09-24 04:08:20,-0.00,1.25,0.00,24.27,28.82,31.85,14.33,48.10,1009.76,2028.78,2989.88,2794.85,3142.57,599.57,589.14,38.48,0000 0000 0000 0000 000000
2016-09-24 04:13:21,0.01,1.25,0.00,24.31,28.82,31.85,14.41,48.03,1009.78,2028.72,2989.58,2794.61,3142.32,600.12,589.58,38.53,0000 0000 0000 0000 000000
2016-09-24 04:18:22,0.02,1.25,0.00,24.31,28.82,31.82,14.38,47.97,1009.78,2028.63,2989.07,2794.10,3142.03,600.11,589.57,38.58,0000 0000 0000 0000 000000
2016-09-24 04:23:23,0.07,1.25,0.00,24.34,28.82,31.82,14.40,48.01,1009.77,2028.57,2988.05,2793.35,3141.18,599.98,589.30,38.63,0000 0000 0000 0000 000000
2016-09-24 04:28:25,0.08,1.26,0.00,24.34,28.82,31.83,14.33,47.98,1009.78,2028.83,2986.99,2792.38,3140.08,599.75,589.03,38.68,0000 0000 0000 0000 000000
2016-09-24 04:33:26,0.02,1.26,0.00,24.35,28.82,31.82,14.32,47.92,1009.78,2028.88,2986.14,2792.01,3139.97,599.84,589.18,38.73,0000 0000 0000 0000 000000
2016-09-24 04:38:28,0.00,1.26,0.00,24.34,28.82,31.80,14.38,47.92,1009.78,2028.89,2986.02,2792.00,3139.94,599.92,589.37,38.79,0000 0000 0000 0000 000000
2016-09-24 04:43:29,0.01,1.26,0.00,24.36,28.81,31.81,14.30,48.02,1009.78,2028.92,2986.00,2791.99,3139.68,599.92,589.27,38.84,0000 0000 0000 0000 000000
2016-09-24 04:48:30,0.01,1.26,0.00,24.38,28.80,31.77,14.33,48.03,1009.78,2028.95,2985.87,2791.89,3139.25,599.96,589.31,38.89,0000 0000 0000 0000 000000
2016-09-24 04:53:32,0.12,1.27,0.00,24.36,28.80,31.84,14.43,48.02,1009.78,2028.98,2984.19,2790.56,3138.16,600.37,589.69,38.94,0000 0000 0000 0000 000000
2016-09-24 04:58:33,0.05,1.27,0.00,24.37,28.80,31.79,14.32,47.90,1009.78,2028.97,2982.78,2789.42,3137.03,599.44,588.74,38.99,0000 0000 0000 0000 000000
2016-09-24 05:03:34,0.02,1.27,0.00,24.41,28.80,31.78,14.34,47.97,1009.78,2028.96,2982.06,2789.02,3136.77,599.74,588.99,39.04,0000 0000 0000 0000 000000
2016-09-24 05:08:36,0.03,1.27,0.00,24.41,28.80,31.80,14.44,47.92,1009.78,2028.97,2981.24,2788.96,3136.05,600.42,589.62,39.09,0000 0000 0000 0000 000000
2016-09-24 05:13:37,0.02,1.27,0.00,24.42,28.80,31.76,14.40,48.06,1009.78,2028.98,2981.00,2788.53,3135.99,600.32,589.51,39.14,0000 0000 0000 0000 000000
2016-09-24 05:18:38,0.00,1.27,0.00,24.45,28.80,31.74,14.38,47.99,1009.78,2028.97,2980.98,2788.28,3135.98,599.75,588.87,39.19,0000 0000 0000 0000 000000
2016-09-24 05:23:40,0.01,1.28,0.00,24.47,28.80,31.77,14.36,48.09,1009.78,2028.98,2980.70,2788.04,3135.78,599.67,588.96,39.24,0000 0000 0000 0000 000000
2016-09-24 05:28:41,0.02,1.28,0.00,24.50,28.79,31.75,14.37,47.99,1009.78,2028.99,2980.05,2788.00,3135.11,599.67,588.73,39.29,0000 0000 0000 0000 000000
2016-09-24 05:33:42,0.00,1.28,0.00,24.51,28.78,31.75,14.38,48.07,1009.78,2028.99,2979.92,2787.93,3135.00,599.95,589.03,39.34,0000 0000 0000 0000 000000
2016-09-24 05:38:43,0.03,1.28,0.00,24.54,28.78,31.75,14.39,48.09,1009.78,2028.97,2979.20,2787.32,3135.00,600.23,589.13,39.39,0000 0000 0000 0000 000000
2016-09-24 05:43:45,0.01,1.28,0.00,24.55,28.78,31.70,14.34,48.09,1009.78,2028.97,2979.00,2787.02,3134.89,600.20,588.98,39.44,0000 0000 0000 0000 000000
2016-09-24 05:48:46,0.00,1.28,0.00,24.56,28.77,31.75,14.34,48.13,1009.78,2028.96,2978.98,2787.00,3134.38,599.77,588.70,39.49,0000 0000 0000 0000 000000
2016-09-24 05:53:48,0.00,1.28,0.00,24.54,28.77,31.73,14.38,47.97,1009.78,2028.95,2978.97,2787.00,3134.16,599.59,588.56,39.54,0000 0000 0000 0000 000000
2016-09-24 05:58:48,0.02,1.28,0.00,24.55,28.77,31.77,14.40,48.03,1009.78,2028.98,2978.50,2786.99,3134.02,600.24,589.25,39.59,0000 0000 0000 0000 000000
2016-09-24 06:03:50,0.02,1.28,0.00,24.56,28.77,31.75,14.34,47.93,1009.78,2028.97,2977.93,2786.48,3133.97,599.97,588.89,39.65,0000 0000 0000 0000 000000
2016-09-24 06:08:51,0.03,1.28,0.00,24.57,28.77,31.76,14.38,47.99,1009.78,2028.96,2977.13,2786.01,3133.36,600.13,588.97,39.70,0000 0000 0000 0000 000000
2016-09-24 06:13:53,0.02,1.29,0.00,24.59,28.76,31.75,14.32,48.07,1009.78,2028.92,2976.35,2785.76,3132.95,599.27,588.11,39.75,0000 0000 0000 0000 000000
2016-09-24 06:18:54,0.05,1.29,0.00,24.60,28.75,31.74,14.38,47.95,1009.78,2028.95,2975.71,2785.05,3132.22,600.51,589.33,39.80,0000 0000 0000 0000 000000
2016-09-24 06:23:55,0.00,1.29,0.00,24.60,28.75,31.70,14.33,48.04,1009.78,2028.92,2975.04,2784.99,3131.99,600.10,588.85,39.85,0000 0000 0000 0000 000000
2016-09-24 06:28:57,0.02,1.29,0.00,24.61,28.75,31.70,14.43,47.88,1009.78,2028.90,2974.98,2784.52,3131.85,600.05,588.90,39.90,0000 0000 0000 0000 000000
2016-09-24 06:33:58,0.02,1.29,0.00,24.62,28.74,31.71,14.37,47.88,1009.78,2028.93,2974.94,2784.25,3131.44,599.97,588.79,39.95,0000 0000 0000 0000 000000
2016-09-24 06:38:59,0.01,1.29,0.00,24.60,28.72,31.69,14.30,47.80,1009.78,2028.95,2974.84,2784.18,3131.45,599.92,588.77,40.00,0000 0000 0000 0000 000000
2016-09-24 06:44:00,-0.01,1.29,0.00,24.58,28.72,31.70,14.43,47.86,1009.78,2028.97,2974.84,2784.22,3131.65,600.28,589.17,40.05,0000 0000 0000 0000 000000
2016-09-24 06:49:01,0.01,1.29,0.00,24.59,28.72,31.72,14.43,47.86,1009.78,2028.98,2974.28,2784.15,3131.63,600.24,589.10,40.10,0000 0000 0000 0000 000000
2016-09-24 06:54:03,-0.01,1.29,0.00,24.59,28.72,31.72,14.43,47.88,1009.79,2028.98,2974.36,2784.17,3131.77,600.33,589.15,40.15,0000 0000 0000 0000 000000
2016-09-24 06:59:04,-0.00,1.29,0.00,24.62,28.72,31.67,14.34,47.78,1009.79,2028.99,2974.55,2784.33,3131.77,600.06,588.86,40.20,0000 0000 0000 0000 000000
2016-09-24 07:04:05,-0.01,1.29,0.00,24.63,28.72,31.71,14.35,47.84,1009.79,2028.99,2974.78,2784.52,3131.75,599.60,588.48,40.25,0000 0000 0000 0000 000000
2016-09-24 07:09:06,0.01,1.29,0.00,24.63,28.70,31.72,14.36,47.98,1009.80,2028.99,2974.50,2784.30,3131.56,600.21,589.00,40.30,0000 0000 0000 0000 000000
2016-09-24 07:14:07,-0.02,1.29,0.00,24.63,28.70,31.69,14.37,47.93,1009.79,2028.98,2974.70,2784.60,3131.86,599.97,588.80,40.35,0000 0000 0000 0000 000000
2016-09-24 07:19:09,0.00,1.29,0.00,24.64,28.70,31.68,14.33,47.92,1009.78,2028.99,2974.63,2784.72,3131.93,599.83,588.57,40.40,0000 0000 0000 0000 000000
2016-09-24 07:24:10,0.02,1.29,0.00,24.66,28.70,31.66,14.38,47.92,1009.79,2028.99,2974.10,2784.34,3131.85,600.08,588.77,40.45,0000 0000 0000 0000 000000
2016-09-24 07:29:11,0.01,1.29,0.00,24.67,28.70,31.70,14.36,47.93,1009.79,2028.99,2974.01,2784.22,3131.71,599.71,588.44,40.50,0000 0000 0000 0000 000000
2016-09-24 07:34:12,0.01,1.29,0.00,24.68,28.70,31.72,14.32,47.88,1009.79,2028.99,2974.00,2784.07,3131.33,599.86,588.52,40.55,0000 0000 0000 0000 000000
2016-09-24 07:39:13,0.00,1.29,0.00,24.69,28.69,31.72,14.36,48.01,1009.79,2028.99,2973.95,2784.00,3131.03,599.96,588.63,40.60,0000 0000 0000 0000 000000
2016-09-24 07:44:14,0.00,1.29,0.00,24.69,28.68,31.69,14.41,47.98,1009.78,2028.99,2973.90,2784.00,3131.01,600.30,589.00,40.66,0000 0000 0000 0000 000000
2016-09-24 07:49:15,0.00,1.29,0.00,24.69,28.67,31.74,14.32,47.88,1009.78,2028.99,2973.71,2784.00,3131.01,600.28,588.89,40.71,0000 0000 0000 0000 000000
2016-09-24 07:54:16,-0.00,1.29,0.00,24.69,28.67,31.69,14.25,47.86,1009.78,2028.99,2973.89,2784.01,3131.01,599.90,588.52,40.76,0000 0000 0000 0000 000000
2016-09-24 07:59:18,0.00,1.29,0.00,24.68,28.67,31.72,14.32,47.94,1009.78,2029.00,2973.72,2784.00,3131.01,599.64,588.42,40.81,0000 0000 0000 0000 000000
2016-09-24 08:04:19,-0.00,1.29,0.00,24.68,28.67,31.71,14.27,47.94,1009.78,2029.00,2973.69,2784.00,3131.00,599.63,588.40,40.86,0000 0000 0000 0000 000000
2016-09-24 08:09:21,-0.00,1.29,0.00,24.68,28.67,31.69,14.26,47.99,1009.79,2029.00,2973.79,2784.00,3131.02,599.93,588.66,40.91,0000 0000 0000 0000 000000
2016-09-24 08:14:22,0.00,1.29,0.00,24.68,28.67,31.68,14.34,47.96,1009.79,2029.00,2973.77,2784.01,3131.02,599.91,588.55,40.96,0000 0000 0000 0000 000000
2016-09-24 08:19:23,0.00,1.29,0.00,24.69,28.65,31.70,14.34,47.85,1009.79,2029.00,2973.48,2784.00,3131.00,600.17,588.87,41.01,0000 0000 0000 0000 000000
2016-09-24 08:24:24,0.00,1.29,0.00,24.69,28.65,31.72,14.39,47.95,1009.79,2029.00,2973.28,2784.00,3131.00,599.98,588.61,41.06,0000 0000 0000 0000 000000
2016-09-24 08:29:25,0.00,1.29,0.00,24.69,28.65,31.69,14.31,47.92,1009.79,2029.00,2973.26,2784.00,3131.00,600.10,588.72,41.11,0000 0000 0000 0000 000000
2016-09-24 08:34:26,0.00,1.29,0.00,24.70,28.65,31.67,14.39,47.95,1009.79,2029.00,2973.10,2784.00,3131.00,600.25,588.86,41.16,0000 0000 0000 0000 000000
2016-09-24 08:39:28,-0.00,1.29,0.00,24.67,28.65,31.68,14.43,48.10,1009.80,2029.00,2973.10,2784.00,3131.00,600.30,589.07,41.21,0000 0000 0000 0000 000000
2016-09-24 08:44:29,0.00,1.29,0.00,24.67,28.65,31.67,14.35,47.97,1009.79,2029.00,2973.07,2784.00,3131.00,600.12,588.78,41.26,0000 0000 0000 0000 000000
2016-09-24 08:49:31,0.00,1.29,0.00,24.68,28.65,31.64,14.37,47.97,1009.80,2029.01,2973.09,2784.00,3131.00,599.85,588.55,41.31,0000 0000 0000 0000 000000
2016-09-24 08:54:32,0.00,1.29,0.00,24.68,28.65,31.67,14.43,47.98,1009.81,2029.01,2973.04,2784.00,3131.00,600.74,589.40,41.36,0000 0000 0000 0000 000000
2016-09-24 08:59:33,-0.00,1.29,0.00,24.67,28.64,31.71,14.28,47.99,1009.89,2029.01,2973.07,2784.00,3131.00,599.55,588.44,41.41,0000 0000 0000 0000 000000
2016-09-24 09:04:34,0.00,1.29,0.00,24.70,28.63,31.64,14.27,48.02,1009.97,2029.01,2973.08,2784.00,3131.00,600.33,588.94,41.46,0000 0000 0000 0000 000000
2016-09-24 09:09:35,0.00,1.29,0.00,24.69,28.62,31.64,14.39,48.00,1010.08,2029.01,2973.02,2784.00,3131.00,599.97,588.74,41.51,0000 0000 0000 0000 000000
2016-09-24 09:14:37,0.00,1.29,0.00,24.65,28.62,31.65,14.33,48.11,1010.19,2029.01,2973.03,2784.00,3131.00,599.72,588.76,41.56,0000 0000 0000 0000 000000
2016-09-24 09:19:38,0.00,1.29,0.00,24.67,28.62,31.66,14.30,47.85,1010.24,2029.02,2973.03,2784.00,3131.00,599.61,588.58,41.61,0000 0000 0000 0000 000000
2016-09-24 09:24:39,-0.00,1.29,0.00,24.67,28.62,31.61,14.35,47.93,1010.25,2029.01,2973.04,2784.00,3131.00,599.95,588.99,41.67,0000 0000 0000 0000 000000
2016-09-24 09:29:41,0.00,1.29,0.00,24.70,28.62,31.66,14.34,48.02,1010.26,2029.04,2973.10,2784.01,3131.00,599.96,588.93,41.72,0000 0000 0000 0000 000000
2016-09-24 09:34:42,0.00,1.29,0.00,24.68,28.62,31.66,14.31,47.85,1010.27,2029.03,2973.04,2784.00,3131.01,599.77,588.81,41.77,0000 0000 0000 0000 000000
2016-09-24 09:39:44,-0.00,1.29,0.00,24.68,28.62,31.64,14.30,47.99,1010.27,2029.04,2973.07,2784.00,3131.01,599.89,588.99,41.82,0000 0000 0000 0000 000000
2016-09-24 09:44:45,-0.00,1.29,0.00,24.67,28.62,31.67,14.42,47.92,1010.27,2029.03,2973.12,2784.01,3131.01,600.60,589.60,41.87,0000 0000 0000 0000 000000
2016-09-24 09:49:46,0.00,1.29,0.00,24.70,28.61,31.66,14.28,47.87,1010.27,2029.04,2973.04,2784.00,3131.01,599.72,588.66,41.92,0000 0000 0000 0000 000000
2016-09-24 09:54:47,0.00,1.29,0.00,24.70,28.61,31.65,14.30,47.94,1010.27,2029.04,2973.02,2784.00,3131.00,599.75,588.56,41.97,0000 0000 0000 0000 000000
2016-09-24 09:59:49,0.00,1.29,0.00,24.69,28.61,31.65,14.45,48.06,1010.27,2029.04,2973.08,2784.01,3131.00,599.94,589.03,42.02,0000 0000 0000 0000 000000
2016-09-24 10:04:50,0.00,1.29,0.00,24.66,28.61,31.61,14.38,47.96,1010.27,2029.05,2973.07,2784.00,3131.00,599.91,588.92,42.07,0000 0000 0000 0000 000000
2016-09-24 10:09:51,0.00,1.29,0.00,24.68,28.60,31.67,14.25,47.93,1010.27,2029.02,2973.01,2784.00,3131.00,599.90,588.84,42.12,0000 0000 0000 0000 000000
2016-09-24 10:14:52,0.00,1.29,0.00,24.69,28.60,31.67,14.32,48.01,1010.28,2029.05,2973.01,2784.00,3131.00,599.92,588.87,42.17,0000 0000 0000 0000 000000
2016-09-24 10:19:54,-0.00,1.29,0.00,24.71,28.60,31.61,14.38,47.82,1010.28,2029.02,2973.01,2784.00,3131.00,600.13,588.99,42.22,0000 0000 0000 0000 000000
2016-09-24 10:24:55,-0.00,1.29,0.00,24.70,28.60,31.65,14.30,47.70,1010.30,2029.02,2973.01,2784.00,3131.00,600.04,588.87,42.27,0000 0000 0000 0000 000000
2016-09-24 10:29:56,-0.00,1.29,0.00,24.70,28.60,31.68,14.44,47.92,1010.31,2029.02,2973.01,2784.00,3131.00,600.23,589.23,42.32,0000 0000 0000 0000 000000
2016-09-24 10:34:58,0.00,1.29,0.00,24.71,28.60,31.63,14.32,47.88,1010.35,2029.03,2973.00,2784.00,3131.00,600.19,589.11,42.37,0000 0000 0000 0000 000000
2016-09-24 10:39:59,0.00,1.29,0.00,24.70,28.60,31.63,14.32,47.92,1010.50,2029.04,2973.00,2784.00,3131.00,599.67,588.67,42.42,0000 0000 0000 0000 000000
2016-09-24 10:45:01,0.00,1.29,0.00,24.70,28.60,31.64,14.26,47.89,1010.63,2029.03,2973.00,2784.00,3131.00,599.48,588.64,42.47,0000 0000 0000 0000 000000
2016-09-24 10:50:02,-0.00,1.29,0.00,24.73,28.60,31.62,14.33,47.91,1010.72,2029.03,2973.00,2784.00,3131.00,599.83,589.10,42.52,0000 0000 0000 0000 000000
2016-09-24 10:55:03,0.00,1.29,0.00,24.69,28.60,31.64,14.31,47.89,1010.71,2029.02,2973.01,2784.00,3131.00,599.89,589.05,42.58,0000 0000 0000 0000 000000
2016-09-24 11:00:04,0.00,1.29,0.00,24.71,28.60,31.65,14.30,47.97,1010.47,2029.02,2973.01,2784.00,3131.00,599.69,588.70,42.63,0000 0000 0000 0000 000000
2016-09-24 11:05:05,0.00,1.29,0.00,24.73,28.60,31.60,14.31,47.95,1010.39,2029.02,2973.00,2784.00,3131.00,599.87,588.65,42.68,0000 0000 0000 0000 000000
2016-09-24 11:10:06,0.00,1.29,0.00,24.72,28.60,31.60,14.28,47.88,1010.59,2029.02,2973.00,2784.00,3131.00,599.69,588.76,42.73,0000 0000 0000 0000 000000
2016-09-24 11:15:07,0.00,1.29,0.00,24.70,28.60,31.63,14.40,47.92,1010.70,2029.01,2973.00,2784.00,3131.00,600.21,589.31,42.78,0000 0000 0000 0000 000000
2016-09-24 11:20:09,0.00,1.29,0.00,24.71,28.60,31.62,14.34,47.91,1010.75,2029.02,2972.99,2784.00,3130.99,599.96,589.15,42.83,0000 0000 0000 0000 000000
2016-09-24 11:25:10,-0.00,1.29,0.00,24.71,28.60,31.63,14.29,47.87,1010.75,2029.02,2972.99,2783.99,3130.97,599.81,589.11,42.88,0000 0000 0000 0000 000000
2016-09-24 11:30:12,0.00,1.29,0.00,24.69,28.60,31.61,14.36,48.01,1010.76,2029.02,2972.99,2783.98,3130.98,599.97,589.14,42.93,0000 0000 0000 0000 000000
2016-09-24 11:35:13,0.00,1.29,0.00,24.70,28.60,31.62,14.38,47.94,1010.76,2029.06,2972.99,2783.99,3130.99,600.01,589.10,42.98,0000 0000 0000 0000 000000
2016-09-24 11:40:14,-0.01,1.29,0.00,24.70,28.60,31.64,14.40,47.98,1010.76,2029.03,2972.97,2783.99,3130.99,600.17,589.34,43.03,0000 0000 0000 0000 000000
2016-09-24 11:45:15,0.00,1.29,0.00,24.69,28.60,31.61,14.41,47.94,1010.76,2029.01,2972.95,2783.98,3130.97,600.29,589.47,43.08,0000 0000 0000 0000 000000
2016-09-24 11:50:16,0.00,1.29,0.00,24.69,28.60,31.60,14.39,47.90,1010.76,2029.01,2972.96,2783.99,3130.98,600.10,589.26,43.13,0000 0000 0000 0000 000000
2016-09-24 11:55:18,0.00,1.29,0.00,24.72,28.60,31.64,14.35,47.95,1010.76,2029.05,2972.98,2783.99,3130.99,600.07,589.27,43.18,0000 0000 0000 0000 000000
2016-09-24 12:00:19,-0.00,1.29,0.00,24.74,28.60,31.61,14.35,47.96,1010.76,2029.03,2972.97,2783.99,3130.99,600.08,589.14,43.23,0000 0000 0000 0000 000000
2016-09-24 12:05:21,0.00,1.29,0.00,24.76,28.60,31.59,14.32,47.85,1010.76,2029.04,2972.97,2783.99,3130.99,600.15,589.21,43.28,0000 0000 0000 0000 000000
2016-09-24 12:10:22,0.00,1.29,0.00,24.72,28.60,31.58,14.38,47.84,1010.76,2029.05,2972.96,2783.99,3130.99,600.06,589.10,43.33,0000 0000 0000 0000 000000
2016-09-24 12:15:23,0.00,1.29,0.00,24.71,28.60,31.54,14.31,47.98,1010.76,2029.05,2972.97,2783.99,3130.99,599.77,588.92,43.38,0000 0000 0000 0000 000000
2016-09-24 12:20:25,0.00,1.29,0.00,24.73,28.60,31.56,14.34,47.92,1010.76,2029.05,2972.96,2783.99,3130.99,599.59,588.70,43.43,0000 0000 0000 0000 000000
2016-09-24 12:25:25,-0.00,1.29,0.00,24.72,28.60,31.59,14.32,47.84,1010.75,2029.03,2972.91,2783.98,3130.98,600.24,589.39,43.48,0000 0000 0000 0000 000000
2016-09-24 12:30:27,0.00,1.29,0.00,24.69,28.60,31.56,14.26,47.89,1010.75,2029.03,2972.85,2783.98,3130.97,599.77,589.03,43.53,0000 0000 0000 0000 000000
2016-09-24 12:35:28,-0.00,1.29,0.00,24.73,28.60,31.56,14.31,47.84,1010.75,2029.01,2972.81,2783.98,3130.97,599.80,589.04,43.59,0000 0000 0000 0000 000000
2016-09-24 12:40:29,0.00,1.29,0.00,24.73,28.60,31.56,14.32,47.85,1010.75,2029.02,2972.83,2783.98,3130.97,599.84,589.03,43.64,0000 0000 0000 0000 000000
2016-09-24 12:45:30,0.00,1.29,0.00,24.72,28.60,31.55,14.37,47.83,1010.72,2029.01,2972.66,2783.98,3130.97,600.00,589.16,43.69,0000 0000 0000 0000 000000
2016-09-24 12:50:32,-0.00,1.29,0.00,24.71,28.60,31.57,14.35,47.83,1010.68,2029.01,2972.70,2783.99,3130.96,600.11,589.16,43.74,0000 0000 0000 0000 000000
2016-09-24 12:55:33,0.00,1.29,0.00,24.71,28.60,31.61,14.37,47.91,1010.57,2029.01,2972.47,2783.98,3130.92,600.21,589.27,43.79,0000 0000 0000 0000 000000